Location: Big Meadows
(38.5260°N, 78.4400°W)
Time: 21:48:17
(UTC-04:00)

H-2A R/B - Visible Passes

Search period start: 18 April 2014 00:00
Search period end: 28 April 2014 00:00
Orbit: 734 x 840 km, 98.5° (Epoch: 17 April)

Date Brightness Start Highest point End Pass type
(mag) Time Alt. Az. Time Alt. Az. Time Alt. Az.
18 Apr 4.5 00:38:51 16° NW 00:38:51 16° NW 00:39:56 10° NNW visible
18 Apr 4.2 22:27:23 13° NE 22:27:23 13° NE 22:28:43 10° NNE visible
19 Apr 4.1 00:08:02 24° NNW 00:08:02 24° NNW 00:09:57 10° NNW visible
19 Apr 3.7 23:37:13 28° N 23:37:13 28° N 23:39:34 10° N visible
20 Apr 3.7 23:06:25 24° NNE 23:06:25 24° NNE 23:08:49 10° N visible
21 Apr 4.6 00:47:04 15° NW 00:47:04 15° NW 00:48:03 10° NW visible
21 Apr 4.0 22:35:36 16° NE 22:35:36 16° NE 22:37:29 10° NNE visible
22 Apr 4.1 00:16:15 23° NNW 00:16:15 23° NNW 00:18:13 10° NNW visible
22 Apr 3.6 23:45:27 30° N 23:45:27 30° N 23:47:56 10° N visible
23 Apr 3.5 23:14:38 28° NNE 23:14:38 28° NNE 23:17:17 10° N visible
24 Apr 4.6 00:55:17 13° NW 00:55:17 13° NW 00:56:05 10° NW visible
24 Apr 3.9 22:43:49 19° NE 22:43:49 19° NE 22:46:09 10° NNE visible
25 Apr 4.1 00:24:28 23° NW 00:24:28 23° NW 00:26:27 10° NNW visible
25 Apr 4.3 22:13:00 10° NE 22:13:00 10° NE 22:13:21 10° NE visible
25 Apr 3.5 23:53:39 32° NNW 23:53:39 32° NNW 23:56:16 10° NNW visible
26 Apr 3.4 23:22:51 32° NNE 23:22:51 32° NNE 23:25:43 10° N visible
27 Apr 4.6 01:03:30 12° NW 01:03:30 12° NW 01:04:01 10° NW visible
27 Apr 3.7 22:52:02 22° NE 22:52:02 22° NE 22:54:44 10° NNE visible
